Home   Weather   Waterbury   Past weeks

Flag for USA Past Weather in Waterbury, Connecticut, USA — Yesterday and Last 2 Weeks

Now
61 °F

Fog.


Feels Like: 61 °F
Forecast: 54 / 67 °F
Wind: 5 mph from Southwest

Location: Oxford

Current Time: Apr 27, 2017 at 1:15:17 pm

Latest Report: Apr 27, 2017 at 11:50 am


Visibility: 3 mi

Pressure: 29.93 "Hg

Humidity: 83%

Dew Point: 55 °F

Location of WaterburyLocation

Past Weather in Waterbury — Graph

°F

Waterbury Temperature Yesterday

Maximum temperature yesterday: 59 °F (at 3:50 pm)
Minimum temperature yesterday: 48 °F (at 12:15 am)
Average temperature yesterday: 52 °F

High & Low Weather Summary for the Past Weeks

 TemperatureHumidityPressure
High82 °F (Apr 16, 3:50 pm)94% (Apr 27, 12:35 am)30.55 "Hg (Apr 27, 12:35 am)
Low37 °F (Apr 15, 5:55 am)12% (Apr 14, 6:50 pm)29.75 "Hg (Apr 16, 6:50 pm)
Average51 °F68%30.12 "Hg
* Reported Apr 12 11:50 am — Apr 27 11:50 am, Waterbury, Weather by CustomWeather, © 2017

Note: Actual official high and low records may vary slightly from our data, if they occured in-between our weather recording intervals... More about our weather records

Advertising

Waterbury Weather History for the Previous 24 Hours

Scroll right to see more
 ConditionsComfort  
Time TempWeatherWind HumidityBarometerVisibility
11:50 am
Thu, Apr 27
61 °FFog.5 mph83%29.93 "Hg3 mi
10:50 am59 °FFog.5 mph82%29.94 "Hg3 mi
9:50 am57 °FFog.No wind88%29.94 "Hg3 mi
8:50 am57 °FFog.No wind88%29.93 "Hg2 mi
7:50 am57 °FFog.No wind88%29.93 "Hg2 mi
7:15 am55 °FFog.No wind94%29.92 "Hg1 mi
6:50 am55 °FFog.No wind94%29.90 "Hg2 mi
5:50 am55 °FDrizzle. Fog.No wind88%29.89 "Hg1 mi
5:35 am55 °FOvercast.No wind88%29.89 "Hg3 mi
5:15 am55 °FLow clouds.No wind94%29.87 "Hg1 mi
4:55 am55 °FLow clouds.No wind94%29.87 "Hg0 mi
4:35 am55 °FLow clouds.No wind94%29.87 "Hg0 mi
4:15 am55 °FLow clouds.No wind94%29.87 "Hg0 mi
3:55 am55 °FLow clouds.No wind94%29.87 "Hg0 mi
3:35 am55 °FLow clouds.No wind94%29.87 "Hg0 mi
3:15 am55 °FLow clouds.No wind94%29.87 "Hg0 mi
2:55 am55 °FLow clouds.No wind94%29.86 "Hg1 mi
2:35 am55 °FLow clouds.No wind94%29.87 "Hg1 mi
2:15 am55 °FLow clouds.No wind94%29.86 "Hg1 mi
1:55 am55 °FLow clouds.No wind94%29.85 "Hg1 mi
1:35 am55 °FMostly cloudy.3 mph94%29.86 "Hg3 mi
1:15 am55 °FLow clouds.3 mph94%29.85 "Hg2 mi
12:55 am55 °FLow clouds.No wind94%29.86 "Hg2 mi
12:35 am55 °FLow clouds.No wind94%29.86 "Hg3 mi
12:15 am57 °FMostly cloudy.3 mph88%29.86 "Hg5 mi
11:55 pm
Wed, Apr 26
55 °FMostly cloudy.No wind88%29.86 "Hg4 mi
11:35 pm55 °FMostly cloudy.3 mph88%29.85 "Hg2 mi
10:55 pm57 °FLow clouds.3 mph82%29.86 "Hg1 mi
10:35 pm57 °FLow clouds.5 mph82%29.87 "Hg2 mi
9:35 pm57 °FLow clouds.3 mph82%29.85 "Hg10 mi
9:15 pm57 °FLow clouds.3 mph82%29.85 "Hg10 mi
8:50 pm57 °FLow clouds.No wind82%29.84 "Hg7 mi
7:50 pm57 °FLow clouds.6 mph82%29.83 "Hg7 mi
6:50 pm59 °FOvercast.8 mph77%29.80 "Hg10 mi
5:50 pm59 °FOvercast.8 mph77%29.79 "Hg10 mi
4:50 pm59 °FLow clouds.8 mph77%29.79 "Hg10 mi
3:50 pm59 °FLow clouds.10 mph77%29.79 "Hg10 mi
2:55 pm57 °FLow clouds.8 mph82%29.81 "Hg10 mi
1:50 pm57 °FLow clouds.9 mph77%29.80 "Hg10 mi
Weather by CustomWeather, © 2017

See weather overviewHow to use our weather pages